Etusivu
METAR-TAF:

METAR-TAF

Lentoasemat :

St. Paul Downtown Airport (Holman Field)

Saint Paul, Minnesota, Yhdysvallat

Leveyspiiri: 44-55-49N, Pituuspiiri: 093-02-53W, korkeus merenpinnasta: 214 m

Tämänhetkinen sää

Tämä raportti tehtiin 22 minuuttia sitten, kello 14.53 UTC
Tuuli 5 kn luoteesta
Lämpötila 23°C
Kosteus 61%
Ilmanpaine 1012 hPa
Näkyvyys: 16.1 km
selkeää

METAR: KSTP 031453Z 32005KT 10SM CLR 23/15 A2988 RMK AO2 SLP111 T02330150 50005

Aika: 10:15 (15:15 UTC)


TAF: puuttuu

Säähavainnot ja -ennusteet yli 4000 lentoasemalta (METAR- ja TAF-raportit).

Käytössä olevat sääasemat on merkitty karttaan keltaisilla ja punaisilla pisteillä.

Aseta hiiri pisteen päälle nähdäksesi sääaseman nimen.

Klikkaa sitten nähdäksesi säähavainnot ja -ennusteet.

Kartan vaihtaminen: klikkaa mustalla rastilla varustettuja vihreitä pisteitä, niin voit zoomata sisään; viivalla varustettua vihreää pistettä, niin voit zoomata ulos tai vihreitä nuolia, niin pääset viereisille kartoille.


METAR-TAF: